TimeAKDT,TemperatureF,Dew PointF,Humidity,Sea Level PressureIn,VisibilityMPH,Wind Direction,Wind SpeedMPH,Gust SpeedMPH,PrecipitationIn,Events,Conditions,WindDirDegrees,DateUTC
12:53 AM,36.0,30.0,79,29.51,10.0,NNE,4.6,-,N/A,,Mostly Cloudy,30,2012-10-12 08:53:00
1:53 AM,37.9,30.9,76,29.48,10.0,Calm,Calm,-,N/A,,Overcast,0,2012-10-12 09:53:00
2:53 AM,35.1,30.0,82,29.46,10.0,Calm,Calm,-,N/A,,Overcast,0,2012-10-12 10:53:00
3:53 AM,32.0,28.0,85,29.44,10.0,NNE,3.5,-,N/A,,Clear,20,2012-10-12 11:53:00
4:53 AM,32.0,28.0,85,29.41,10.0,Calm,Calm,-,N/A,,Clear,0,2012-10-12 12:53:00
5:53 AM,32.0,28.0,85,29.39,10.0,Calm,Calm,-,N/A,,Clear,0,2012-10-12 13:53:00
6:53 AM,30.9,27.0,85,29.36,10.0,Calm,Calm,-,N/A,,Clear,0,2012-10-12 14:53:00
7:53 AM,30.0,27.0,88,29.34,10.0,Calm,Calm,-,N/A,,Clear,0,2012-10-12 15:53:00
8:53 AM,28.9,26.1,89,29.32,10.0,Calm,Calm,-,N/A,,Clear,0,2012-10-12 16:53:00
9:53 AM,34.0,28.9,82,29.31,10.0,Calm,Calm,-,N/A,,Clear,0,2012-10-12 17:53:00
10:53 AM,39.9,32.0,73,29.29,10.0,NE,3.5,-,N/A,,Scattered Clouds,40,2012-10-12 18:53:00
11:53 AM,43.0,32.0,65,29.26,10.0,Calm,Calm,-,N/A,,Clear,0,2012-10-12 19:53:00
12:53 PM,44.1,32.0,63,29.24,10.0,ESE,3.5,-,N/A,,Clear,110,2012-10-12 20:53:00
1:53 PM,45.0,28.9,53,29.21,10.0,East,3.5,-,N/A,,Clear,90,2012-10-12 21:53:00
2:53 PM,46.0,30.9,56,29.18,10.0,Calm,Calm,-,N/A,,Clear,0,2012-10-12 22:53:00
3:53 PM,48.0,30.9,52,29.15,10.0,Calm,Calm,-,N/A,,Clear,0,2012-10-12 23:53:00
4:53 PM,48.0,30.9,52,29.13,10.0,NE,3.5,-,N/A,,Clear,40,2012-10-13 00:53:00
5:53 PM,46.9,33.1,59,29.12,10.0,ENE,3.5,-,N/A,,Overcast,70,2012-10-13 01:53:00
6:53 PM,44.1,30.0,58,29.11,10.0,NE,6.9,-,N/A,,Mostly Cloudy,50,2012-10-13 02:53:00
7:53 PM,42.1,28.9,60,29.11,10.0,NE,8.1,-,N/A,,Mostly Cloudy,50,2012-10-13 03:53:00
9:53 PM,37.9,28.9,70,29.09,10.0,Calm,Calm,-,N/A,,Overcast,0,2012-10-13 05:53:00
10:53 PM,37.0,27.0,67,29.09,10.0,ENE,4.6,-,N/A,,Overcast,70,2012-10-13 06:53:00
11:53 PM,34.0,27.0,75,29.08,10.0,Calm,Calm,-,N/A,,Mostly Cloudy,0,2012-10-13 07:53:00